User: anonymous
Location: Irma
(52.9170°N, 111.2330°W)
Time: 18:01:44
(UTC-06:00)
Language:

Cosmos 1633 Rocket - Orbit

View from above orbital plane
View from above orbital plane
View from above satellite
View from above satellite

Ground track
Ground track

The orbit data is extracted from the following two-line orbital elements,

1 15593U 85020B   14263.71446171  .00000323  00000-0  36084-4 0  7660
2 15593 082.5359 118.6355 0013395 103.9731 323.1603 14.83748387595988
Epoch (UTC): 20 September 2014 17:08:49
Eccentricity: 0.0013395
inclination: 82.5359°
perigee height: 608 km
apogee height: 627 km
right ascension of ascending node: 118.6355°
argument of perigee: 103.9731°
revolutions per day: 14.83748387
mean anomaly at epoch: 323.1603°
orbit number at epoch: 59598

The dashed part of the orbit path shows where the satellite is in the earth's shadow,  

DLR